Weather in Uslanka

Russia / Kursk Oblast     51°11′15″N   36°07′35″E
temp.,
°C
wind,
m/s
gust,
m/s
humid.,
%
clouds,
%
prec.,
mm/h
press.,
hPa
HPBL,
m
7 march, sun
sun700:00−7wnw379276 0.0 1022247
03:00−9w489345 0.0 1021210
06:00−9wsw5109575 0.0 1019268
09:00−6wsw8157860 0.0 1017627
12:00−3sw101673100 0.0 10141057
15:000wsw111874100 0.0 10101276
18:00−1wsw101890100 0.2 10071188
21:00−1wsw101791100 0.4 10061103
8 march, mon
mon800:00−1wsw8148899 0.1 1006911
03:00−1wsw7149199 0.3 1006728
06:00−2wsw61295100 0.5 1005678
09:00−2w61091100 1.1 1006731
12:00−1w7108099 0.3 10071248
15:00−2wnw6978100 0.5 10081174
18:00−4w498687 0.1 1008371
21:00−5wnw5109091 0.1 1010439
9 march, tue
tue900:00−7nw479449 0.0 1012189
03:00−10nw489336 0.0 1013247
06:00−11nw479465 0.0 1014205
09:00−10wnw359373 0.1 1016255
12:00−7nw4687100 0.1 1017576
15:00−7nw5783100 0.1 1019781
18:00−8nw4786100 0.1 1019758
21:00−11nnw359280 0.1 1022146
10 march, wed
wed1000:00−12nw24910 0.0 1023108
03:00−13nw23920 0.0 102491
06:00−14nnw23930 0.0 102585
09:00−12n238817 0.0 1026158
12:00−9nne117740 0.0 1026362
15:00−7nne117065 0.0 1026518
18:00−8ene2282100 0.0 1026111
21:00−10e228899 0.0 102745
11 march, thu
thu1100:00−9ese228799 0.0 102768
03:00−10ese238995 0.0 102862
06:00−11se238832 0.0 102865
09:00−8sse478016 0.0 1028281
12:00−4s466718 0.0 1028679
15:00−3ssw465931 0.0 10271065
18:00−4sse35670 0.0 102688
21:00−5s511660 0.0 1026248